This is the latest recevied weather packets stored in our database for station/object iw0uwf-4. If no packets are shown the sender has not sent any weather packets the latest 1 day(s).
| Time | Temp. | Humidity | Pressure | Rain* | Wind** | Luminosity | Snow |
|---|---|---|---|---|---|---|---|
| 1777982343 | 20° C | 67% | 1006.4 hPa | 0 mm | 2.24 m/s, 253° | 0 W/m² | - |
| 1777982283 | 20° C | 67% | 1006.6 hPa | 0 mm | 2.24 m/s, 263° | 0 W/m² | - |
| 1777982224 | 20° C | 67% | 1006.5 hPa | 0 mm | 2.24 m/s, 260° | 0 W/m² | - |
| 1777982164 | 19.44° C | 67% | 1006.6 hPa | 0 mm | 2.24 m/s, 262° | 0 W/m² | - |
| 1777982104 | 19.44° C | 67% | 1006.6 hPa | 0 mm | 2.24 m/s, 259° | 0 W/m² | - |
| 1777982044 | 19.44° C | 68% | 1006.6 hPa | 0 mm | 2.24 m/s, 260° | 0 W/m² | - |
| 1777981984 | 19.44° C | 68% | 1006.6 hPa | 0 mm | 2.24 m/s, 263° | 0 W/m² | - |
| 1777981924 | 19.44° C | 68% | 1006.8 hPa | 0 mm | 2.24 m/s, 268° | 0 W/m² | - |
| 1777981864 | 19.44° C | 68% | 1006.6 hPa | 0 mm | 2.24 m/s, 268° | 0 W/m² | - |
| 1777981805 | 19.44° C | 68% | 1006.6 hPa | 0 mm | 2.24 m/s, 268° | 0 W/m² | - |
| 1777981744 | 19.44° C | 67% | 1006.6 hPa | 0 mm | 2.24 m/s, 269° | 0 W/m² | - |
| 1777981683 | 19.44° C | 67% | 1006.6 hPa | 0 mm | 2.24 m/s, 257° | 0 W/m² | - |
| 1777981623 | 19.44° C | 67% | 1006.6 hPa | 0 mm | 2.24 m/s, 249° | 0 W/m² | - |
| 1777981564 | 19.44° C | 67% | 1006.5 hPa | 0 mm | 2.24 m/s, 244° | 0 W/m² | - |
| 1777981503 | 19.44° C | 67% | 1006.7 hPa | 0 mm | 2.24 m/s, 242° | 0 W/m² | - |
| 1777981443 | 19.44° C | 67% | 1006.6 hPa | 0 mm | 2.68 m/s, 242° | 0 W/m² | - |
| 1777981383 | 19.44° C | 67% | 1006.6 hPa | 0 mm | 2.68 m/s, 237° | 0 W/m² | - |
| 1777981323 | 19.44° C | 66% | 1006.6 hPa | 0 mm | 2.68 m/s, 234° | 0 W/m² | - |
| 1777981263 | 19.44° C | 66% | 1006.6 hPa | 0 mm | 3.13 m/s, 229° | 0 W/m² | - |
| 1777981203 | 19.44° C | 66% | 1006.7 hPa | 0 mm | 3.13 m/s, 239° | 0 W/m² | - |
| 1777981143 | 19.44° C | 66% | 1006.6 hPa | 0 mm | 3.13 m/s, 243° | 0 W/m² | - |
| 1777981083 | 20° C | 66% | 1006.6 hPa | 0 mm | 2.68 m/s, 245° | 0 W/m² | - |
| 1777981024 | 20° C | 66% | 1006.7 hPa | 0 mm | 2.68 m/s, 245° | 0 W/m² | - |
| 1777980964 | 20° C | 66% | 1006.6 hPa | 0 mm | 2.68 m/s, 249° | 0 W/m² | - |
| 1777980904 | 20° C | 65% | 1006.6 hPa | 0 mm | 2.68 m/s, 248° | 0 W/m² | - |
* Rain latest hour (hover to see other rain measurements)
** Current wind speed in m/s (hover to see current wind gust speed)